sat.trackr.live / text

‹ back to catalog

STARLINK-6106

NORAD 57154 · 2023-090BF

PAYLOAD ACTIVE UNKNOWN

§ Identity

Operator
Country
US
Launch date
2023-06-23
Launch site
AFETR
Launch vehicle
Mass (kg)
RCS (m²)

Purposes: comms

External: N2YO · Heavens-Above · Gunter

§ Orbital elements

Epoch: 2026-05-25T03:25:56.279136Z

Period
94.27 min
Inclination
43.0018°
Eccentricity
0.0001186
Mean motion
15.27570288 rev/d
Perigee alt
482.3 km
Apogee alt
483.9 km
Semi-major
6,861.2 km
B*
7.9560e-5
RAAN
191.7578°
Arg perigee
272.6628°
Mean anomaly
87.4088°
Rev number
16,223

§ Raw data

STARLINK-61061 57154U 23090BF  26145.14301249  .00001927  00000+0  79560-4 0  99972 57154  43.0018 191.7578 0001186 272.6628  87.4088 15.27570288162231

JSON: /api/v1/satellites/57154 · /tle

For live sub-satellite position, see the globe view (requires WebGL).

§ Visibility from observer

Set your observer location to see the next 7 days of passes ≥ 10°. The values pass through the URL so the page stays shareable.

No JS? Fill the form by hand. The geolocation button needs JavaScript.